Temperature
17 17 16 16 16 16 15 15 15 15 15 15 14 14 14 14 14 14 14 14 14 14 14 14 14 14 14 14 14 14 14 14 14 14 14 14 13 14 14 14 14 14 14
16 16 16 16 16 15 15 15 15 15 15 14 14 14 14 14 14 14 14 14 14 14 14 14 14 14 14 13 13 13 13 13 13 13 13 13 13 13 13 13 13 13 13
16 16 16 16 15 15 15 15 15 15 14 14 14 14 14 14 14 14 14 13 13 13 13 13 13 13 13 13 13 13 13 13 13 13 13 13 13 13 13 13 13 13 13
16 16 16 15 15 15 15 15 15 14 14 14 14 14 14 13 13 13 13 13 13 13 13 13 13 13 13 13 13 13 13 13 13 13 13 13 13 13 13 13 13 13 13
16 16 15 15 15 15 15 15 14 14 14 14 14 13 13 13 13 13 13 13 13 13 13 13 13 13 13 13 12 12 12 12 12 12 12 12 12 12 12 12 12 12 12
16 16 15 15 15 15 14 14 14 14 14 13 13 13 13 13 13 13 13 13 13 12 12 12 12 12 12 12 12 12 12 12 12 12 11 11 11 11 12 12 12 12 12
16 15 15 15 15 14 14 14 14 13 13 13 13 13 13 13 13 13 13 12 12 12 12 12 12 12 12 12 12 12 12 12 11 11 11 11 11 11 11 11 11 11 11
15 15 15 15 14 14 14 14 13 13 13 13 13 13 13 12 12 12 12 12 12 12 11 11 11 11 11 11 11 11 11 11 11 11 11 11 11 11 11 11 11 11 11
15 15 15 15 14 14 14 13 13 13 13 12 12 12 12 12 12 12 12 12 12 11 11 11 11 11 11 11 11 11 11 11 11 11 10 10 10 10 10 10 10 10 10
15 15 14 14 14 14 13 13 13 13 12 12 12 12 12 12 12 11 11 11 11 11 11 11 10 10 10 10 10 10 10 10 10 10 10 10 10 10 10 10 10 9 9
15 14 14 14 14 13 13 13 13 12 12 12 12 11 11 11 11 11 11 11 11 10 10 10 10 10 10 10 10 10 10 9 9 9 9 10 10 9 9 9 9 9 9
14 14 14 13 13 13 13 13 12 12 12 11 11 11 11 11 11 10 10 10 10 10 10 9 9 10 10 10 9 9 9 9 9 9 9 9 9 9 9 9 9 9 8
14 14 13 13 13 12 12 12 12 11 11 11 11 10 10 10 10 10 10 10 10 9 9 9 9 9 9 9 9 9 8 8 8 8 8 8 8 8 8 8 8 8 8
14 13 13 12 12 12 12 11 11 11 11 10 10 10 10 10 10 10 9 9 9 9 9 9 9 9 8 8 8 8 8 8 8 8 7 7 7 7 7 7 7 7 7
13 12 12 12 12 11 11 11 11 10 10 10 10 10 10 9 9 9 9 9 9 9 8 8 8 8 8 8 8 7 7 7 7 7 7 7 7 6 6 6 6 6 6
12 12 12 11 11 11 11 10 10 10 10 10 10 10 9 9 9 9 9 8 8 8 8 7 7 7 7 7 7 7 7 7 6 6 6 6 6 6 6 6 6 6 6
12 11 11 11 11 10 10 10 10 10 9 9 9 9 9 9 8 8 8 8 7 7 7 7 7 6 6 6 6 6 6 6 6 6 6 5 5 5 5 5 5 5 5
11 11 11 10 10 10 9 9 9 9 9 9 9 9 8 8 8 8 7 7 7 6 6 6 6 6 6 6 6 5 5 5 5 5 5 5 5 5 4 4 4 4 4
11 10 10 10 10 9 9 9 9 8 8 8 8 8 8 8 7 7 7 6 6 6 6 5 5 5 5 5 5 5 5 4 4 4 4 4 4 4 4 4 4 4 4
10 10 10 9 9 9 8 8 8 8 8 8 8 7 7 7 7 6 6 6 5 5 5 5 5 5 5 4 4 4 4 4 4 4 4 4 4 3 3 3 3 3 3
10 9 9 9 8 8 8 8 8 7 7 7 7 7 7 6 6 6 5 5 5 5 5 4 4 4 4 4 4 4 3 3 3 3 3 3 3 3 3 3 3 3 3
9 9 9 8 8 8 7 7 7 7 7 7 6 6 6 6 5 5 5 5 4 4 4 4 4 4 4 3 3 3 3 3 3 3 3 3 2 2 2 2 2 2 2
9 8 8 8 8 7 7 7 7 7 6 6 6 6 5 5 5 5 4 4 4 4 4 3 3 3 3 3 3 3 2 2 2 2 2 2 2 2 2 2 2 2 2
8 8 8 7 7 7 7 6 6 6 6 6 5 5 5 5 4 4 4 4 4 3 3 3 3 3 2 2 2 2 2 2 2 2 2 2 2 2 1 1 1 1 1
7 7 7 7 6 6 6 6 6 5 5 5 5 5 4 4 4 4 3 3 3 3 3 2 2 2 2 2 1 1 1 1 1 1 1 1 1 1 1 1 1 1 1
7 6 6 6 6 6 5 5 5 5 4 4 4 4 4 3 3 3 3 3 2 2 2 2 2 1 1 1 1 1 1 1 1 1 1 1 1 1 0 0 0 0 1
Wind_Speed
4 4 4 4 3 2 2 2 2 2 2 2 3 3 3 4 3 4 4 4 4 4 3 3 3 3 3 3 2 2 2 1 1 3 2 2 2 2 1 3 2 2 3
4 4 4 4 3 3 2 2 2 2 3 3 3 3 4 4 4 4 4 4 4 4 4 4 4 4 4 4 3 3 2 2 1 3 3 3 2 2 2 2 3 3 4
5 4 4 4 3 3 2 2 2 2 2 3 2 3 3 4 4 4 4 4 4 4 4 4 4 4 4 4 4 4 3 4 3 3 4 3 2 2 2 3 3 3 5
5 4 4 3 3 3 2 2 2 2 2 2 2 3 3 4 5 5 5 5 5 4 5 5 5 5 4 5 5 5 5 4 3 3 4 4 3 3 2 2 3 3 3
5 5 4 4 3 3 2 2 2 3 4 3 3 3 3 3 5 6 6 6 5 5 4 4 4 4 6 5 4 5 5 4 3 3 3 4 4 4 3 3 3 3 4
5 5 4 4 3 3 2 2 3 3 3 3 3 3 4 4 6 8 7 5 5 4 4 4 3 3 4 5 6 6 5 4 4 3 3 4 5 4 4 4 4 4 4
5 5 4 4 3 2 2 2 2 2 2 3 3 3 3 4 5 7 8 5 5 4 3 3 4 6 6 5 6 6 6 7 7 4 4 5 5 5 4 5 5 6 6
6 5 4 3 3 2 2 1 1 1 1 1 2 2 2 3 4 6 8 5 4 3 4 4 4 5 7 8 6 5 5 6 6 5 4 6 6 5 5 6 6 6 6
5 5 4 4 3 3 2 0 0 1 1 0 0 0 1 2 3 5 6 5 4 3 3 4 5 4 8 11 7 6 6 6 9 11 11 11 12 12 9 4 4 4 6
5 5 4 4 4 3 2 1 1 1 1 1 1 0 1 3 3 4 5 4 4 4 2 2 5 5 9 10 6 5 6 7 8 9 9 9 8 9 10 4 3 4 5
5 5 5 4 4 3 2 1 0 0 1 1 1 1 1 2 2 2 3 3 4 4 4 3 3 7 9 11 10 6 8 9 8 8 7 6 5 4 4 4 3 3 4
5 5 4 4 3 3 3 1 0 0 0 1 1 1 1 1 2 0 2 4 5 5 4 3 3 9 11 13 10 10 13 12 6 5 5 5 5 4 5 5 6 6 6
5 4 4 4 3 3 3 2 1 0 1 1 1 1 2 1 0 1 3 6 7 5 5 7 9 11 11 9 10 12 10 6 5 5 5 5 4 5 5 5 6 7 8
5 4 4 3 3 3 2 1 1 0 1 1 2 2 2 2 2 2 2 4 5 6 6 8 11 11 9 9 9 7 5 5 5 5 5 5 4 4 4 4 5 5 6
4 4 3 3 3 3 2 1 1 1 1 0 1 1 2 2 3 4 4 3 4 5 7 5 5 5 5 5 5 5 4 4 5 4 4 5 5 5 5 5 5 5 6
4 3 3 2 2 2 1 1 1 1 2 2 2 2 2 3 5 6 7 8 9 10 8 5 6 6 5 5 5 5 4 4 4 4 4 4 5 6 6 5 5 6 7
3 3 2 2 2 1 1 1 1 2 3 4 5 5 5 6 6 7 8 9 10 10 5 5 6 6 5 5 5 5 5 5 4 5 5 5 5 6 6 6 6 6 7
4 3 2 2 1 1 1 1 1 2 2 3 5 7 7 7 7 8 8 7 6 5 4 5 6 5 5 5 5 5 5 5 5 5 5 5 6 6 6 7 7 7 7
3 2 2 1 1 1 1 1 1 2 2 3 2 3 5 6 6 8 7 4 5 6 5 5 6 6 5 5 5 5 5 5 6 6 5 6 6 6 6 7 7 10 9
2 3 2 0 1 1 1 1 2 2 3 3 3 3 2 2 3 4 4 4 5 5 5 5 5 6 5 5 5 5 5 6 6 6 6 6 6 6 7 8 7 8 8
2 2 2 1 1 1 1 2 2 2 3 3 3 3 4 3 4 5 4 4 5 5 5 5 5 5 5 5 5 6 7 6 6 6 6 6 6 6 7 7 8 8 9
1 1 2 2 1 1 1 2 3 3 3 4 3 4 5 4 4 4 4 5 5 4 4 5 5 5 5 5 6 6 7 7 6 6 7 7 7 7 7 8 8 8 9
1 1 1 1 1 1 2 2 3 3 4 4 4 3 3 4 4 4 5 5 4 4 5 5 5 5 6 7 7 6 6 6 6 7 7 8 8 8 8 8 10 10 10
1 1 1 1 1 1 2 3 3 3 4 4 4 3 3 4 4 5 5 4 4 4 5 6 6 8 10 9 10 9 9 10 11 9 9 9 9 8 8 8 9 10 10
0 1 1 1 1 2 2 3 3 4 4 4 4 4 4 4 5 5 5 4 5 5 7 8 9 9 11 13 12 12 14 15 14 13 11 8 9 9 9 10 10 10 10
0 1 1 1 1 2 2 3 4 4 4 4 4 4 4 5 5 5 5 5 6 6 7 8 10 12 14 13 14 15 16 16 17 17 13 8 9 9 10 9 12 11 11
Wind_Direction
118 110 113 108 98 78 55 68 61 57 60 50 47 44 44 29 22 28 13 8 4 356 356 12 5 9 6 350 356 2 358 6 314 309 322 324 342 323 326 299 294 255 274
115 104 98 96 90 73 55 50 44 49 47 49 43 38 36 32 22 14 1 7 1 357 355 10 13 14 6 354 354 349 347 340 336 315 312 324 325 311 288 292 302 292 281
116 109 103 97 93 80 62 44 34 45 48 61 47 43 37 21 14 5 8 359 354 357 359 8 10 22 6 353 355 356 351 349 345 331 314 311 305 310 319 316 312 303 297
117 111 103 95 91 85 69 57 25 20 39 54 50 47 44 28 18 10 4 356 354 360 7 10 16 29 16 3 358 350 348 342 338 336 323 322 316 308 322 306 309 297 291
123 113 106 97 88 76 60 59 41 27 22 25 42 39 41 36 26 19 358 352 350 355 7 10 23 34 27 17 6 350 347 337 333 335 324 328 324 330 321 307 309 301 290
128 122 117 107 99 91 70 45 50 46 14 9 28 52 46 35 34 23 5 346 338 345 354 356 1 15 10 5 353 345 340 332 323 319 315 314 309 311 320 322 316 317 305
133 127 125 123 114 112 108 83 66 64 29 7 15 50 69 53 28 10 357 338 321 329 341 352 355 17 18 356 341 333 335 329 323 303 299 300 300 305 312 310 303 297 285
141 135 134 135 131 122 100 88 87 85 79 43 24 33 73 49 20 11 351 329 319 338 357 14 23 23 9 358 343 343 336 330 316 309 296 291 294 294 285 281 280 288 288
136 137 136 130 124 117 111 86 12 39 47 339 139 55 94 65 39 20 355 325 325 344 10 24 23 21 357 354 347 336 328 321 323 322 309 301 300 301 298 300 297 297 297
136 134 128 125 129 138 148 139 37 50 356 326 353 26 86 91 74 32 3 336 335 340 357 21 23 5 347 347 342 329 320 315 321 319 313 308 302 299 302 286 278 291 297
129 127 129 135 145 143 130 114 99 48 339 320 332 356 69 116 117 53 11 349 338 334 336 334 335 339 333 328 324 310 301 305 304 303 305 308 310 311 305 301 290 274 282
116 120 131 143 150 129 121 125 131 37 284 294 315 328 320 137 126 84 333 328 330 324 320 324 319 322 322 318 313 302 305 310 302 302 304 303 304 306 307 306 305 298 285
126 134 142 143 130 124 134 153 162 221 262 292 317 307 313 357 91 298 300 310 315 313 315 319 314 310 309 306 296 296 302 300 297 297 295 291 291 296 304 310 308 305 301
145 148 142 135 127 120 110 116 116 45 345 343 349 339 333 346 9 358 328 312 313 316 317 314 311 304 296 291 295 294 288 283 286 284 291 292 301 307 306 306 305 304 304
141 131 126 117 112 102 95 69 103 88 124 159 326 328 330 324 324 334 326 317 317 307 311 303 296 296 294 290 292 293 291 296 295 291 294 301 303 303 300 301 299 300 294
137 131 121 113 110 115 123 54 37 173 170 177 213 241 265 263 280 303 308 306 305 305 309 295 291 289 288 292 296 297 296 298 297 297 298 298 298 297 296 298 298 295 292
125 117 113 116 121 145 179 202 262 272 254 251 252 255 252 266 284 293 295 296 298 301 295 283 283 286 290 290 289 289 290 291 293 292 290 291 291 291 292 293 292 290 287
117 117 114 115 129 187 233 246 249 258 272 271 256 255 258 263 274 281 286 300 300 291 276 280 284 286 288 290 292 293 293 295 295 293 290 289 289 290 291 291 291 289 287
119 123 121 124 151 221 253 268 278 287 287 283 282 272 261 271 276 277 283 280 280 282 281 284 288 291 291 291 293 295 294 292 293 295 293 292 291 291 289 286 288 291 290
123 129 117 149 237 242 256 270 278 281 288 294 293 292 291 297 292 290 284 280 282 286 288 287 289 291 293 294 294 294 294 294 295 292 292 291 290 290 291 292 292 293 288
132 149 178 224 241 250 268 286 287 285 287 290 286 286 287 280 275 280 285 284 285 288 291 292 292 294 293 292 291 290 291 291 291 291 292 290 289 288 285 285 286 287 288
150 176 201 221 243 260 289 292 293 289 288 291 288 287 287 280 278 283 287 287 287 286 290 292 293 291 289 290 292 292 290 291 291 291 291 291 291 288 287 286 286 285 286
171 210 246 260 268 281 283 279 284 286 286 285 288 292 291 290 290 290 290 291 294 299 309 308 299 297 303 301 298 295 294 295 295 293 295 295 293 291 290 288 286 287 286
190 221 253 272 276 270 277 285 287 288 291 294 296 296 295 294 294 296 300 302 303 304 311 311 306 301 301 305 305 306 306 307 308 306 300 296 293 291 290 289 287 286 285
196 261 273 276 282 287 293 298 300 302 306 307 308 309 307 305 305 305 305 306 306 303 305 306 304 303 305 305 305 304 304 307 308 307 302 295 288 287 286 286 287 288 284
228 286 296 301 300 300 301 301 302 306 307 309 312 312 311 309 308 308 307 306 302 299 299 302 300 302 303 305 304 303 305 306 305 303 301 293 285 284 285 285 285 285 282
Height
1556 1557 1558 1558 1559 1560 1560 1560 1560 1560 1560 1560 1559 1559 1558 1557 1557 1556 1556 1556 1555 1555 1554 1553 1553 1552 1551 1551 1550 1549 1549 1548 1547 1546 1545 1544 1543 1542 1541 1540 1539 1538 1537
1556 1557 1558 1558 1559 1559 1560 1560 1560 1560 1560 1560 1560 1559 1558 1558 1557 1557 1556 1556 1555 1555 1554 1553 1552 1551 1551 1550 1549 1548 1548 1547 1546 1544 1543 1543 1542 1541 1539 1538 1537 1536 1535
1555 1556 1557 1558 1558 1559 1559 1559 1560 1560 1560 1560 1559 1559 1558 1558 1557 1557 1556 1555 1555 1554 1554 1553 1552 1551 1550 1549 1548 1547 1546 1546 1545 1543 1542 1541 1540 1539 1538 1536 1535 1534 1533
1554 1555 1556 1557 1558 1558 1559 1559 1559 1560 1559 1559 1559 1558 1558 1557 1557 1556 1555 1555 1554 1554 1553 1552 1551 1550 1549 1548 1547 1546 1545 1544 1543 1541 1540 1539 1538 1537 1536 1534 1533 1532 1531
1553 1554 1555 1556 1557 1558 1558 1558 1558 1558 1559 1559 1558 1558 1557 1556 1556 1555 1554 1554 1553 1552 1552 1551 1550 1549 1548 1547 1546 1544 1543 1542 1541 1539 1538 1537 1536 1534 1533 1532 1530 1529 1528
1552 1553 1555 1555 1556 1556 1557 1557 1557 1557 1558 1558 1557 1557 1556 1556 1555 1554 1553 1552 1552 1551 1550 1549 1548 1547 1546 1545 1544 1543 1542 1541 1539 1538 1536 1535 1533 1532 1531 1529 1528 1526 1524
1551 1552 1553 1554 1555 1555 1556 1556 1556 1556 1556 1556 1556 1556 1555 1554 1554 1553 1552 1551 1551 1550 1549 1548 1547 1545 1544 1543 1542 1541 1539 1538 1537 1536 1534 1532 1531 1529 1528 1526 1525 1523 1521
1550 1551 1552 1553 1553 1554 1554 1555 1555 1555 1555 1555 1555 1554 1554 1553 1552 1552 1551 1550 1549 1548 1547 1546 1545 1543 1542 1541 1539 1538 1536 1535 1534 1533 1531 1529 1528 1527 1525 1523 1521 1519 1517
1549 1550 1550 1551 1552 1552 1553 1553 1553 1554 1554 1554 1553 1553 1552 1552 1551 1550 1550 1548 1547 1546 1545 1544 1543 1541 1540 1538 1536 1534 1532 1531 1530 1529 1527 1526 1524 1523 1521 1519 1517 1515 1512
1547 1548 1549 1549 1550 1550 1551 1551 1552 1552 1552 1552 1552 1552 1551 1550 1550 1549 1548 1547 1545 1544 1543 1542 1540 1539 1537 1535 1533 1531 1529 1527 1525 1524 1523 1521 1520 1518 1517 1516 1514 1511 1509
1545 1546 1547 1547 1548 1549 1549 1550 1550 1550 1550 1550 1550 1550 1549 1549 1548 1547 1546 1545 1543 1542 1540 1539 1537 1536 1534 1532 1530 1528 1526 1524 1522 1520 1518 1517 1515 1514 1512 1511 1510 1508 1506
1543 1545 1545 1546 1547 1547 1548 1548 1548 1548 1548 1548 1548 1548 1548 1547 1546 1545 1544 1542 1541 1539 1537 1536 1534 1532 1530 1529 1527 1524 1523 1521 1519 1516 1514 1513 1511 1509 1508 1506 1505 1503 1501
1541 1543 1544 1545 1545 1545 1546 1546 1546 1546 1546 1546 1546 1546 1545 1544 1543 1542 1541 1539 1538 1536 1534 1532 1531 1529 1526 1524 1523 1521 1519 1517 1515 1513 1511 1509 1507 1505 1503 1501 1499 1497 1495
1540 1541 1542 1543 1543 1544 1544 1544 1544 1544 1544 1544 1543 1543 1542 1541 1540 1539 1537 1536 1534 1532 1530 1528 1526 1524 1522 1520 1519 1517 1515 1514 1512 1509 1507 1505 1503 1500 1498 1496 1494 1491 1489
1538 1539 1540 1541 1541 1542 1542 1542 1542 1542 1542 1542 1541 1540 1539 1538 1537 1535 1534 1532 1530 1528 1526 1523 1521 1519 1518 1516 1514 1513 1511 1509 1507 1505 1502 1500 1498 1496 1493 1491 1489 1486 1484
1536 1537 1538 1538 1539 1539 1539 1540 1540 1540 1539 1539 1538 1537 1535 1535 1533 1532 1530 1528 1526 1524 1522 1519 1517 1515 1513 1512 1510 1508 1506 1505 1503 1501 1498 1496 1493 1491 1488 1486 1484 1481 1479
1534 1535 1535 1536 1536 1537 1537 1537 1537 1537 1536 1536 1535 1534 1532 1531 1529 1528 1526 1524 1522 1520 1517 1515 1513 1511 1509 1508 1506 1504 1502 1500 1498 1495 1493 1490 1488 1485 1483 1480 1478 1475 1473
1532 1532 1533 1533 1534 1534 1534 1534 1534 1533 1533 1532 1531 1530 1529 1527 1526 1524 1522 1519 1517 1515 1513 1511 1509 1507 1505 1503 1501 1499 1496 1494 1492 1489 1487 1485 1482 1480 1477 1474 1472 1469 1467
1529 1530 1530 1531 1531 1531 1532 1531 1531 1531 1530 1529 1527 1526 1525 1523 1521 1520 1517 1515 1513 1511 1509 1507 1505 1503 1500 1498 1496 1493 1491 1488 1486 1484 1481 1479 1476 1474 1471 1468 1466 1463 1460
1527 1527 1528 1528 1528 1529 1529 1528 1528 1527 1526 1525 1524 1522 1521 1519 1516 1515 1513 1511 1509 1506 1504 1502 1500 1497 1495 1492 1490 1487 1485 1482 1480 1478 1475 1472 1470 1467 1464 1461 1459 1456 1453
1524 1524 1525 1525 1525 1525 1525 1525 1525 1524 1523 1522 1520 1519 1517 1515 1512 1510 1508 1506 1504 1502 1499 1497 1494 1492 1489 1487 1484 1481 1478 1476 1473 1471 1468 1466 1463 1460 1457 1454 1451 1448 1445
1521 1521 1522 1522 1522 1522 1522 1522 1521 1520 1519 1518 1516 1514 1513 1511 1508 1506 1504 1501 1499 1497 1494 1491 1488 1486 1483 1481 1478 1475 1472 1469 1467 1464 1461 1458 1456 1452 1449 1446 1443 1440 1437
1518 1518 1519 1519 1519 1519 1519 1518 1517 1516 1515 1514 1512 1510 1508 1506 1504 1501 1499 1496 1493 1491 1488 1486 1483 1480 1477 1474 1472 1469 1466 1463 1460 1457 1454 1451 1448 1445 1442 1439 1436 1433 1430
1514 1515 1515 1516 1516 1515 1515 1514 1514 1512 1511 1509 1508 1506 1503 1501 1499 1496 1493 1491 1488 1485 1482 1479 1476 1473 1470 1468 1465 1462 1459 1456 1453 1450 1447 1444 1441 1438 1435 1432 1429 1426 1423
1511 1512 1512 1512 1512 1512 1511 1510 1509 1508 1507 1505 1503 1501 1499 1496 1493 1490 1488 1485 1482 1479 1476 1473 1469 1466 1463 1460 1458 1455 1452 1449 1446 1443 1440 1436 1433 1430 1427 1424 1421 1419 1416
1507 1508 1508 1509 1508 1508 1507 1506 1505 1504 1502 1500 1498 1496 1493 1491 1488 1485 1482 1479 1476 1472 1469 1466 1463 1460 1456 1453 1450 1447 1444 1441 1438 1435 1432 1428 1425 1422 1420 1417 1414 1411 1409